Regional Weather Roundup
Issued by NWS

Home | Current Version | Previous Version | Graphics & Text | Print | Product List | Glossary On
Versions: 1 2 3 4 5 6 7 8 9 10 11 12 13 14 15 16 17 18 19 20 21 22 23 24 25 26 27 28 29 30 31 32 33 34 35 36 37 38 39 40 41 42 43 44 45 46 47 48 49 50
000
ASUS43 KDMX 181107
RWRIA

WEATHER ROUNDUP FOR IOWA
NATIONAL WEATHER SERVICE DES MOINES IA
500 AM CST THU DEC 18 2014

NOTE: "FAIR" INDICATES FEW OR NO CLOUDS BELOW 12,000 FEET WITH NO
SIGNIFICANT WEATHER AND/OR OBSTRUCTIONS TO VISIBILITY.

* - THESE STATIONS ARE NOT NWS STATIONS...THUS NOT UNDER NWS
QUALITY CONTROL.  THEY ALSO DO NOT REPORT WEATHER SUCH
AS PRECIPITATION OR FOG.

IAZ001>003-012>014-020>022-031>034-043>046-181200-
   NORTHWEST IOWA

CITY           SKY/WX    TMP DP  RH WIND       PRES   REMARKS
CARROLL *      CLOUDY    21  19  93 SE7       30.25S WCI  13
CHEROKEE *     CLOUDY    21  19  93 SE5       30.24R WCI  15
DENISON *      CLOUDY    23  19  86 E6        30.21F WCI  16
LE MARS *      CLOUDY    23  21  93 E5        30.23S WCI  17
ORANGE CITY *  CLOUDY    21  18  86 E5        30.21S WCI  15
SHELDON *      CLOUDY    18  16  93 E8        30.21S WCI   7
SIOUX CITY     CLOUDY    25  20  81 SE7       30.23S WCI  17
SPENCER        CLOUDY    17  13  84 E5        30.23F WCI  10
STORM LAKE *   CLOUDY    19  16  86 SE9       30.23R WCI   9
$$

IAZ055>058-069>071-079>083-090>094-181200-
   SOUTHWEST IOWA

CITY           SKY/WX    TMP DP  RH WIND       PRES   REMARKS
ATLANTIC *     CLOUDY    25  19  80 E5        30.23S WCI  19
AUDUBON *      CLEAR     23  18  80 E3        30.23S
CLARINDA *     MIX PCPN  28  23  80 SE6       30.25F WCI  22
COUNCIL BLFS * CLOUDY    27  23  86 E6        30.21F WCI  20
CRESTON *      CLOUDY    25  19  80 E7        30.23S WCI  17
HARLAN  *      CLOUDY    25  23  93 E6        30.27S WCI  18
LAMONI         CLOUDY    25  19  78 E6        30.23S WCI  18
RED OAK *      CLOUDY    27  21  80 E6        30.24S WCI  20
SHENANDOAH *   MIX PCPN  28  23  80 E5        30.24F WCI  23
$$

IAZ047>049-059>061-072>074-084-181200-
   CENTRAL IOWA

CITY           SKY/WX    TMP DP  RH WIND       PRES   REMARKS
AMES           CLOUDY    20  15  81 E5        30.28S WCI  13
ANKENY *       CLOUDY    21  18  86 E3        30.28S
CHARITON *     CLOUDY    23  18  80 E7        30.26R WCI  15
DES MOINES     CLOUDY    23  16  74 NE9       30.27F WCI  13
GRINNELL*      CLOUDY    18  16  93 NE3       30.27F
KNOXVILLE *    CLOUDY    21  16  79 NE6       30.26S WCI  14
MARSHALLTOWN   PTCLDY    15  12  88 S3        30.27R
PELLA *        CLOUDY    21  18  86 NE3       30.29F
PERRY *        CLOUDY    23  19  86 E8        30.26F WCI  14
$$

IAZ004>006-015-016-023>025-035-036-181200-
   NORTH CENTRAL IOWA

CITY           SKY/WX    TMP DP  RH WIND       PRES   REMARKS
ALGONA *       MOCLDY    12  10  92 NE5       30.25F WCI   4
CLARION *      CLOUDY    14  14 100 NE3       30.25F
ESTHERVILLE    MOCLDY    12  10  92 NE6       30.24F WCI   3
FORT DODGE *   CLOUDY    18  14  86 E7        30.27R WCI   8
MASON CITY     CLOUDY    17  15  92 CALM      30.27F
FOREST CITY *  MOCLDY    14  10  85 CALM      30.25F
IOWA FALLS *   MOCLDY    16  12  86 E5        30.27S WCI   9
$$

IAZ007>011-017>019-026>030-037>042-050>054-066-181200-
   NORTHEAST IOWA

CITY           SKY/WX    TMP DP  RH WIND       PRES   REMARKS
CEDAR RAPIDS   PTCLDY    14  12  92 CALM      30.27F
CHARLES CITY * CLEAR     14  12  92 NE5       30.27F WCI   6
CLINTON *      MOCLDY    14   9  79 CALM      30.31S
DECORAH *      CLEAR     14  12  92 CALM      30.26S
DUBUQUE          N/A     15  12  88 CALM      30.26S
MONTICELLO *   CLEAR     16  14  93 N5        30.28S WCI   9
OELWEIN *      PTCLDY    14  10  85 N5        30.27F WCI   6
WATERLOO       PTCLDY    11   9  92 CALM      30.28F
$$

IAZ064-065-067-068-078-181200-
   EAST CENTRAL IOWA

CITY           SKY/WX    TMP DP  RH WIND       PRES   REMARKS
DAVENPORT      MOCLDY    14  10  84 N6        30.28F WCI   5
IOWA CITY      MOCLDY    17  14  88 CALM      30.31S
MT. PLEASANT * MOCLDY    21  18  86 CALM      30.30R
MUSCATINE *    CLEAR     21  18  86 N3        30.30S
QUAD CITIES    MOCLDY    20  16  84 CALM      30.29S
$$

IAZ062-063-075>077-085>089-095>099-181200-
   SOUTHEAST IOWA

CITY           SKY/WX    TMP DP  RH WIND       PRES   REMARKS
BURLINGTON     FLURRIES  22  19  89 CALM      30.28S
FAIRFIELD *    CLOUDY    21  16  79 CALM      30.29S
FORT MADISON * CLOUDY    23  21  93 CALM      30.29S
KEOKUK *       MOCLDY    25  21  86 CALM      30.28R
OSKALOOSA *    CLOUDY    21  18  86 NE3       30.28S
CENTERVILLE *  CLEAR     25  19  80 E6        30.27S WCI  18
OTTUMWA        CLOUDY    22  16  78 NE5       30.27F WCI  16
WASHINGTON *   MOCLDY    21  21 100 NW3       30.29S
$$

ABBREVIATIONS USED IN REMARKS
   TC - TEMPERATURES IN CELSIUS
  WCI - WIND CHILL INDEX
   HX - HEAT INDEX
  VSB - VISIBILITY
$$




USA.gov is the U.S. government's official web portal to all federal, state and local government web resources and services.